Lamar, CO

2:20 AM MDT on September 20, 2019 (GMT -0600)
Lamar Municipal

Weather History for KLAA - August, 2019

Change the Weather History Date:

Sunday, August 18, 2019

  Actual Average Record
Temperature  
Mean Temperature 76 °F 75 °F  
Max Temperature 95 °F 90 °F 108 °F (1934)
Min Temperature 57 °F 61 °F 48 °F (1960)
Degree Days  
Heating Degree Days 0 0  
Month to date heating degree days 0 0  
Since 1 June heating degree days 16 22  
Since 1 July heating degree days 0 2  
Cooling Degree Days 11 10  
Month to date cooling degree days 269 209  
Year to date cooling degree days 943 873  
Since 1 June cooling degree days 921 813  
Growing Degree Days 25 (Base 50)    
Moisture  
Dew Point 57 °F    
Average Humidity 57    
Maximum Humidity 87    
Minimum Humidity 26    
Precipitation  
Precipitation 0.00 in 0.07 in 1.44 in (1956)
Month to date precipitation 0.73 1.57  
Year to date precipitation 7.23 11.66  
Sea Level Pressure  
Sea Level Pressure 29.78 in    
Wind  
Wind Speed 7 mph (ESE)    
Max Wind Speed 20 mph    
Max Gust Speed 26 mph    
Visibility 10 miles    
Events      
T = Trace of Precipitation, MM = Missing Value Source: NWS Daily Summary

Daily Weather History Graph

Daily Weather History Graph

Search for Another Location

Airport or City:

Astronomy

Aug. 18, 2019 Rise Set
Actual Time 6:08 AM MDT 7:40 PM MDT
Civil Twilight 5:40 AM MDT 8:08 PM MDT
Nautical Twilight 5:06 AM MDT 8:41 PM MDT
Astronomical Twilight 4:31 AM MDT 9:16 PM MDT
Moon 9:38 PM MDT (8/18) 8:53 AM MDT (8/18)
Length of Visible Light 14h 27m
Length of Day
13h 32m
Waning Gibbous, 91% of the Moon is Illuminated
Aug 18
Waning Gibbous
Aug 23
Last Quarter
Aug 30
New
Sep 5
First Quarter
Sep 13
Full

Hourly Weather History & Observations

Time (MDT) Temp. Heat Index Dew Point Humidity Pressure Visibility Wind Dir Wind Speed Gust Speed Precip Events Conditions
12:53 AM 69.1 °F - 51.1 °F 53% 29.66 in 10.0 mi ESE 6.9 mph - N/A   Clear
1:53 AM 62.1 °F - 53.1 °F 72% 29.69 in 10.0 mi NNW 4.6 mph - N/A   Clear
2:53 AM 60.1 °F - 52.0 °F 75% 29.71 in 10.0 mi SSW 8.1 mph - N/A   Clear
3:53 AM 57.9 °F - 52.0 °F 81% 29.73 in 10.0 mi West 4.6 mph - N/A   Clear
4:53 AM 60.1 °F - 53.1 °F 78% 29.75 in 10.0 mi WNW 5.8 mph - N/A   Clear
5:53 AM 59.0 °F - 52.0 °F 78% 29.76 in 10.0 mi West 4.6 mph - N/A   Clear
6:53 AM 61.0 °F - 54.0 °F 78% 29.81 in 10.0 mi ENE 5.8 mph - N/A   Clear
7:53 AM 66.9 °F - 55.0 °F 66% 29.84 in 10.0 mi East 4.6 mph - N/A   Clear
8:53 AM 72.0 °F - 57.0 °F 59% 29.84 in 10.0 mi North 9.2 mph - N/A   Clear
9:53 AM 75.9 °F - 59.0 °F 56% 29.85 in 10.0 mi Variable 3.5 mph - N/A   Clear
10:53 AM 80.1 °F 80.6 °F 57.9 °F 47% 29.84 in 10.0 mi North - - N/A   Clear
11:53 AM 82.9 °F 82.1 °F 55.9 °F 39% 29.83 in 10.0 mi Variable 4.6 mph - N/A   Clear
12:53 PM 84.9 °F 83.7 °F 55.9 °F 37% 29.82 in 10.0 mi Calm Calm - N/A   Clear
1:53 PM 89.1 °F 87.7 °F 57.0 °F 34% 29.81 in 10.0 mi Variable 3.5 mph - N/A   Clear
2:53 PM 93.0 °F 92.0 °F 57.9 °F 31% 29.79 in 10.0 mi ESE 8.1 mph - N/A   Clear
3:53 PM 93.9 °F 93.6 °F 60.1 °F 32% 29.77 in 10.0 mi East 6.9 mph 19.6 mph N/A   Clear
4:53 PM 93.9 °F 91.7 °F 54.0 °F 26% 29.76 in 10.0 mi SSE 15.0 mph - N/A   Clear
5:53 PM 91.9 °F 90.6 °F 57.0 °F 31% 29.75 in 10.0 mi SE 17.3 mph - N/A   Clear
6:53 PM 88.0 °F 87.1 °F 59.0 °F 37% 29.76 in 10.0 mi SSE 16.1 mph - N/A   Clear
7:53 PM 82.9 °F 83.3 °F 61.0 °F 47% 29.76 in 10.0 mi SE 13.8 mph - N/A   Clear
8:53 PM 78.1 °F - 61.0 °F 56% 29.78 in 10.0 mi SE 10.4 mph - N/A   Clear
9:53 PM 73.0 °F - 62.1 °F 68% 29.81 in 10.0 mi East 6.9 mph - N/A   Clear
10:53 PM 68.0 °F - 62.1 °F 81% 29.82 in 10.0 mi East 5.8 mph - N/A   Clear
11:53 PM 66.9 °F - 63.0 °F 87% 29.82 in 10.0 mi NE 5.8 mph - N/A   Clear